Вернуться в каталог

METEOR 2-8 DEB

LostPO
NORAD 36331·DEBRIS·🇷🇺 Russia

Запущен Mar 25, 1982 с Plesetsk Cosmodrome

Loading…

Ближайшие Пролёты (ближайшие 24 часа)

TLE

УстаревшееSource: Space-Track

Эпоха: Jul 17, 2023, 05:07 UTC

1 36331U 82025R   23198.21335865  .00004669  00000-0  23614-2 0  9992
2 36331  82.5297  15.0976 0006599 359.5512   0.5659 14.15962895515554

Отслеживайте METEOR 2-8 DEB в реальном времени с AllMySat

Download on the App Store